Theta_e
339 340 341 339 338 339 337 338 336 336 336 337 337 338 339 340 340 340 340 341 341 340 341 340 340 340 340 340 339 339 338 337 337 338 338 339 339 339 340 340 340 340 340 339 339 340 339 339 339 339 339 340 341 341 339 338 338 337 337 334 330 328 327 326 328 331 333 335 334 334 335 335 335 335 335 334 333 329 324 325 331 333 332 330 329
339 340 341 339 338 338 337 338 337 337 338 338 338 338 339 339 340 339 340 340 340 340 340 339 339 339 339 338 337 337 336 335 333 332 334 337 338 338 339 339 339 339 339 339 339 340 339 339 337 338 340 340 340 340 339 338 338 337 336 332 326 323 323 327 329 332 333 333 333 334 334 334 333 332 334 334 333 328 323 325 331 333 331 328 328
339 340 340 338 337 337 336 337 337 338 338 338 338 339 339 339 340 338 339 339 339 339 339 338 337 337 337 336 335 335 334 334 333 331 332 335 336 336 338 338 339 339 338 339 339 339 338 338 338 338 339 340 340 339 340 339 338 337 333 330 328 327 327 329 329 330 330 330 332 334 334 333 330 330 333 334 332 329 327 326 329 332 330 329 329
339 339 340 339 337 337 336 336 335 336 337 338 338 339 339 339 339 338 339 338 338 338 338 337 336 336 336 336 335 335 334 335 335 334 334 334 335 336 338 338 339 339 338 338 338 338 338 337 338 338 339 340 339 339 339 339 338 334 331 332 333 332 332 331 329 330 330 330 332 334 333 333 332 330 332 333 331 331 330 327 328 329 329 329 329
338 339 340 340 339 337 336 335 334 336 337 337 338 338 338 338 338 338 339 337 337 337 336 335 336 336 336 335 335 335 334 336 336 335 336 335 336 336 338 338 339 339 338 338 338 338 338 337 338 338 338 338 338 338 338 337 335 330 330 332 333 334 334 333 332 332 332 331 331 332 331 331 333 331 330 332 331 330 330 329 328 328 328 329 328
338 339 340 340 338 337 337 336 336 336 336 337 338 338 337 338 338 337 337 336 336 335 335 335 334 334 334 334 334 334 334 336 336 335 336 336 336 337 337 338 339 339 338 339 338 339 338 338 338 338 339 338 338 337 337 336 334 332 332 333 334 334 333 333 333 333 332 332 332 332 332 329 331 331 329 331 330 329 329 329 328 328 327 327 326
338 339 340 339 337 337 337 337 336 336 336 337 337 337 338 338 337 335 335 336 336 335 335 335 333 333 334 334 333 335 334 334 335 336 336 336 336 337 337 337 338 338 338 337 337 338 338 338 338 337 338 337 336 336 335 336 337 335 335 334 332 331 330 331 333 334 333 334 335 333 332 331 330 331 329 330 329 328 328 327 328 327 326 324 325
339 339 339 339 338 337 336 336 336 336 337 336 336 338 337 337 336 335 335 336 336 336 335 334 333 334 335 334 333 334 334 334 335 336 337 338 337 338 338 338 337 336 336 338 337 337 336 335 335 334 334 334 332 332 330 330 333 333 333 332 330 329 330 331 332 334 334 335 335 335 334 332 331 331 330 329 329 328 328 329 329 327 325 323 325
338 339 338 338 338 336 336 336 335 336 337 337 337 337 337 336 335 334 335 335 336 336 336 335 334 334 334 333 333 333 333 334 335 336 337 338 339 339 338 338 338 336 337 338 337 335 334 335 335 333 331 329 328 330 329 328 329 330 330 329 329 329 330 331 332 334 336 335 334 335 335 334 331 331 331 330 330 329 329 330 330 327 326 323 324
338 339 338 337 337 336 336 336 335 336 336 337 337 336 336 336 334 334 335 335 335 336 337 336 334 333 334 333 332 331 332 333 335 336 336 337 338 338 338 338 338 337 338 337 336 335 334 334 335 333 330 328 327 329 330 330 330 330 329 329 329 329 330 330 332 336 337 335 334 335 334 333 332 332 331 330 330 330 330 330 330 328 327 324 324
338 338 337 337 336 336 334 334 335 335 336 336 336 335 336 335 334 335 335 335 335 336 336 335 334 333 334 333 331 329 329 332 334 335 337 337 338 338 337 338 338 338 337 336 335 335 334 333 333 332 330 329 328 330 330 330 329 329 328 328 329 328 330 330 334 338 337 335 334 335 334 333 334 334 331 330 330 331 331 329 328 328 326 324 324
337 337 337 336 335 336 334 334 334 334 335 335 334 334 334 333 333 334 334 334 335 335 335 334 333 334 334 333 332 331 329 330 332 334 336 337 338 338 337 337 337 338 336 335 335 333 332 331 330 329 329 329 329 330 329 328 327 327 327 328 328 329 329 330 335 337 334 334 335 335 336 335 336 334 330 331 331 330 331 329 328 327 325 325 325
336 337 337 336 335 335 335 334 334 334 335 334 333 334 333 334 333 334 333 333 334 334 333 332 332 333 333 332 333 333 331 330 330 332 334 336 336 337 337 337 337 337 334 334 334 331 330 330 328 327 328 328 329 328 327 326 325 326 326 327 326 328 328 329 334 335 333 333 334 335 336 335 336 333 330 331 332 330 330 329 328 327 327 326 326
336 336 337 336 336 335 334 334 334 334 334 333 333 333 333 333 332 333 333 332 333 332 332 331 331 332 331 332 332 332 331 330 330 330 332 334 335 335 336 336 336 335 334 335 333 330 329 329 327 326 327 327 327 327 326 326 325 326 326 326 326 327 327 330 333 334 333 333 334 335 335 336 336 332 329 332 332 331 330 328 328 327 327 327 326
336 336 336 337 337 336 334 334 335 335 334 333 333 333 333 333 333 333 332 332 332 331 332 331 331 332 331 330 331 329 329 329 329 329 330 331 332 334 335 335 335 334 334 334 334 330 328 329 328 327 326 327 327 327 326 326 326 326 326 327 326 327 326 329 333 333 333 334 334 335 335 337 335 331 329 332 332 331 330 329 328 327 327 326 325
336 336 336 336 337 337 336 334 334 334 333 333 334 333 333 332 332 332 331 331 331 331 331 330 331 331 330 329 328 327 328 327 327 327 328 328 329 331 332 334 334 334 333 334 334 331 328 329 328 327 327 327 327 327 328 327 326 326 326 326 326 328 327 327 331 333 333 334 334 335 336 337 335 331 329 332 333 331 330 329 328 328 328 327 325
336 335 336 336 336 338 337 336 335 335 334 334 333 332 332 332 331 330 330 331 332 331 330 330 330 330 330 329 329 327 328 328 328 327 327 326 327 327 328 331 332 333 333 332 333 332 329 328 328 328 328 328 328 328 328 327 327 326 326 326 326 327 327 327 329 333 333 333 334 334 336 337 335 331 329 333 333 331 331 329 329 328 328 327 326
335 335 336 336 336 337 337 337 337 337 336 335 333 330 330 332 331 330 330 330 330 330 330 330 329 330 330 330 330 330 331 332 330 328 326 326 326 325 325 326 329 331 332 332 332 331 329 328 329 329 328 328 328 329 328 327 327 326 325 325 325 326 327 327 329 332 333 334 334 334 336 336 335 331 330 334 333 332 331 329 329 329 329 328 327
335 334 336 336 336 336 337 337 337 337 337 337 335 331 330 333 332 331 330 329 330 329 329 330 329 330 330 331 331 331 332 332 332 330 328 327 327 330 328 324 325 326 328 331 330 330 330 330 329 329 329 329 329 328 326 326 325 325 325 324 325 326 328 330 331 333 331 335 335 335 337 336 334 331 331 334 333 332 331 330 330 329 329 329 328
335 335 335 335 335 335 337 337 337 337 337 337 337 334 332 333 332 330 330 329 329 329 328 329 329 330 330 331 331 332 334 332 332 333 332 330 330 333 331 326 325 324 325 327 328 329 330 330 330 330 328 327 326 325 323 323 323 323 323 324 325 326 330 333 334 333 333 335 335 335 337 334 333 331 332 334 333 332 331 330 329 328 329 329 327
335 335 335 334 334 335 336 337 336 336 336 336 337 335 333 334 334 331 330 330 329 329 329 329 331 332 331 331 332 333 336 336 335 335 335 334 332 331 330 329 328 325 324 324 324 326 326 327 327 326 325 325 324 324 324 323 322 322 323 325 327 329 333 336 336 336 336 336 335 337 335 332 333 332 332 335 333 332 331 331 330 329 329 329 328
335 335 335 334 335 336 336 337 336 336 337 337 336 336 335 336 336 333 331 330 329 329 330 331 334 335 333 333 333 332 335 336 335 335 336 336 334 331 331 331 330 329 328 327 326 325 324 324 324 324 323 323 324 329 331 330 328 326 326 328 330 333 336 339 339 338 338 336 337 337 333 332 333 331 333 335 333 331 331 331 331 331 331 330 329
335 335 334 334 335 336 336 336 336 337 337 337 337 336 337 337 336 334 331 330 330 331 331 331 333 335 335 335 334 332 333 334 331 331 333 333 333 331 331 331 331 331 331 331 330 328 326 325 326 326 325 326 329 333 336 335 336 335 333 333 334 337 339 339 339 339 339 339 337 336 333 332 332 332 334 335 333 333 331 331 330 330 331 330 330
335 334 335 335 335 336 336 336 336 338 337 337 337 335 336 335 335 335 334 333 333 334 333 331 330 331 333 334 334 334 334 333 331 331 333 335 335 333 332 332 333 333 331 333 335 333 330 331 331 331 330 332 334 336 336 336 338 338 338 338 338 339 339 338 339 339 339 339 338 335 333 332 332 332 333 333 333 333 333 332 331 330 330 330 330
334 334 334 335 336 336 335 336 336 337 337 337 336 335 335 335 335 335 335 334 334 333 332 331 329 329 332 332 333 334 334 334 333 333 333 335 335 334 334 334 335 336 334 336 338 336 335 335 336 335 335 335 336 337 337 338 338 338 338 339 339 339 338 338 339 339 338 338 337 334 333 333 332 331 331 331 332 333 334 334 333 331 331 331 331
333 334 334 335 335 335 335 336 336 337 337 337 335 334 334 334 334 334 333 333 332 331 331 331 331 330 332 332 333 333 332 332 331 332 331 331 331 331 333 333 334 335 335 335 336 336 336 336 336 336 336 336 336 337 338 338 338 338 338 338 338 339 338 338 339 338 338 337 335 333 334 334 333 333 332 332 332 333 334 334 334 333 332 333 332
333 334 334 334 335 336 336 336 337 336 336 335 334 332 332 332 332 332 331 331 330 330 330 330 330 331 331 332 332 332 332 332 331 331 330 329 329 329 330 331 332 332 333 333 333 334 335 335 336 336 337 336 336 338 338 338 338 338 338 338 338 338 338 337 338 338 337 336 334 333 334 334 334 334 332 332 333 333 334 334 333 333 333 333 332
333 333 333 333 334 336 336 337 337 336 335 333 332 332 331 331 330 330 330 330 330 329 329 329 329 329 331 331 332 332 331 331 331 330 330 329 328 328 329 330 330 330 331 331 331 332 334 334 335 336 336 336 336 337 337 337 338 338 338 338 337 337 337 336 337 337 337 336 335 334 334 334 334 334 333 333 333 333 333 333 333 333 332 332 332
332 333 333 333 335 336 336 336 335 334 333 332 331 331 330 330 330 330 329 330 330 329 329 329 328 328 330 330 331 331 330 329 330 329 329 329 328 327 329 329 329 330 330 330 330 331 332 333 333 333 334 334 335 336 335 336 337 337 337 338 337 336 336 336 336 337 337 335 334 333 334 334 334 333 333 333 333 333 333 333 333 332 332 332 332
333 333 333 333 335 335 334 334 332 332 332 331 330 330 330 330 329 329 329 329 329 329 328 328 328 328 329 330 330 330 330 329 329 328 328 327 327 327 327 328 328 328 329 329 329 329 330 330 331 331 332 333 333 334 335 336 336 336 337 337 336 336 336 336 336 337 336 335 333 333 334 334 332 332 332 333 333 332 333 333 332 332 332 333 333
334 334 334 334 334 333 332 332 332 332 332 331 330 330 330 330 329 329 328 329 330 329 328 328 328 327 328 330 330 329 329 328 327 327 327 327 326 326 327 327 327 327 327 327 327 328 328 329 329 330 331 331 331 333 335 335 336 336 336 336 336 336 335 336 336 336 336 334 333 333 333 333 332 332 332 332 332 332 331 331 332 332 332 332 332
334 334 334 334 332 332 332 331 332 332 331 331 330 330 329 329 329 329 329 330 331 329 328 328 329 328 329 330 329 329 329 329 329 327 326 327 327 327 327 327 326 325 326 325 325 327 327 327 328 328 329 329 330 333 335 335 335 335 335 336 336 335 335 336 335 335 335 334 333 331 332 332 332 331 330 330 331 331 331 331 331 331 331 331 330
332 333 333 332 331 331 332 331 332 332 332 331 330 330 329 329 329 329 330 331 331 329 328 329 329 329 329 330 329 329 329 329 329 328 327 327 327 327 327 327 326 326 326 324 324 325 326 327 328 328 328 328 329 332 333 334 335 335 335 335 335 335 335 334 335 334 334 334 333 331 331 331 332 331 329 329 330 330 330 330 330 330 330 329 329
331 332 332 331 330 331 332 332 332 332 332 331 330 330 330 330 330 330 331 331 331 330 330 330 329 329 329 329 329 329 329 330 329 329 329 328 327 328 327 327 326 326 326 324 324 324 325 327 327 327 327 327 328 330 331 331 333 334 335 335 335 335 334 334 334 334 333 333 332 331 330 330 331 330 330 329 329 329 329 328 328 329 328 328 328
331 331 331 332 331 332 333 333 332 332 332 332 332 331 331 332 330 330 331 331 331 330 329 329 328 328 327 327 328 330 330 330 329 330 330 328 327 327 327 327 327 327 326 325 325 324 325 326 327 327 327 327 328 329 330 331 332 334 335 335 335 334 333 333 334 333 333 332 331 331 331 330 330 330 330 329 328 328 327 326 327 327 326 326 327
332 332 332 333 333 332 333 334 333 333 333 333 333 332 331 331 330 331 332 332 331 329 329 329 327 327 327 327 328 329 330 330 330 329 329 328 326 327 327 327 327 327 326 326 325 324 324 326 328 328 327 327 327 329 330 332 333 334 334 335 334 334 333 333 333 332 332 331 331 331 330 330 329 329 329 328 327 326 325 325 325 324 324 324 324
333 334 333 334 333 333 334 335 334 334 334 333 333 332 331 331 331 331 332 332 332 330 330 330 329 329 329 329 328 329 330 330 330 329 329 328 326 326 327 327 327 327 327 327 326 325 324 325 328 329 328 327 328 328 329 331 332 333 334 334 333 333 333 333 333 332 331 330 331 330 329 329 329 329 328 327 327 326 324 324 323 322 321 321 321
334 334 334 335 334 334 334 335 334 334 334 333 333 332 331 331 330 331 332 332 332 331 331 331 331 331 331 330 330 330 329 330 330 330 329 328 327 326 327 327 327 327 328 327 326 326 325 325 326 328 328 327 328 328 328 329 331 332 333 332 332 333 333 333 333 331 330 330 330 329 329 328 328 327 327 326 326 325 324 323 323 321 320 318 318
335 335 335 335 334 334 333 333 333 333 333 332 331 330 330 330 330 330 331 331 331 331 331 331 331 331 331 332 332 331 330 330 330 330 330 329 327 327 327 327 328 328 328 327 326 326 326 325 324 326 328 328 327 327 328 329 330 331 331 331 332 332 332 332 331 330 330 330 329 328 328 326 326 326 325 325 325 324 323 323 323 322 319 317 315
336 336 336 335 334 333 333 332 332 332 332 331 330 331 330 330 330 330 330 331 331 330 331 331 331 331 332 333 332 333 332 330 330 330 331 330 329 327 327 328 328 328 328 328 327 326 326 327 325 324 326 327 328 328 329 330 330 332 331 331 331 331 331 331 331 330 330 330 328 327 326 325 326 325 325 324 323 322 322 321 321 321 320 318 316
336 336 336 335 334 333 332 332 332 332 332 331 332 332 332 331 331 331 331 331 330 330 331 331 330 331 332 333 333 333 333 332 331 330 331 331 330 328 328 328 328 327 328 328 327 327 327 328 326 325 325 326 327 328 330 330 331 332 332 332 332 331 331 331 331 330 330 329 328 327 325 325 325 325 324 323 322 320 319 319 318 318 318 318 317
335 336 335 335 334 334 333 333 333 333 333 333 332 332 332 332 332 332 332 331 329 329 330 329 331 332 333 333 333 334 334 333 332 331 331 332 331 330 329 328 328 328 328 328 328 328 327 327 326 326 324 325 326 328 330 331 330 331 333 332 331 331 331 330 330 329 329 328 327 327 325 324 324 324 323 321 320 318 317 316 316 316 315 316 316
335 335 335 335 335 335 334 334 333 334 334 333 333 333 333 333 334 334 334 333 332 331 331 330 330 332 332 331 332 332 333 333 332 331 331 331 331 330 330 329 328 328 328 328 328 328 327 327 327 325 324 324 325 326 328 331 330 330 331 330 329 330 330 330 329 328 329 328 327 326 325 324 323 322 321 320 318 317 315 315 314 314 314 315 315
335 335 335 335 336 336 336 336 335 335 335 335 335 334 334 335 335 335 335 335 335 334 334 333 331 331 331 331 331 331 331 330 330 330 329 330 331 331 330 330 330 330 329 328 328 327 327 327 326 326 325 324 324 324 326 329 330 330 329 328 327 327 328 329 329 328 328 327 327 326 324 323 322 322 321 319 317 315 314 314 313 314 314 313 313
335 335 336 336 336 336 336 336 336 336 336 336 336 336 336 336 336 336 335 335 335 334 334 333 332 332 332 332 332 332 331 330 330 330 329 329 330 330 330 329 330 330 330 329 328 327 327 327 326 326 326 325 324 324 324 325 327 329 329 329 328 327 327 328 328 328 327 327 327 325 324 323 322 321 320 318 317 315 314 313 313 313 312 311 310
335 336 336 336 336 337 337 336 337 336 336 336 336 335 335 335 335 335 334 334 333 332 331 331 331 331 330 331 332 331 331 330 331 331 330 330 330 331 330 330 330 330 330 330 329 328 327 327 326 326 326 325 324 324 324 324 325 327 328 329 329 329 329 329 328 327 325 324 324 323 322 322 321 320 319 318 316 314 313 313 312 310 308 307 306
336 337 337 337 337 337 337 336 335 335 335 334 334 333 334 334 333 333 332 332 331 330 330 330 329 329 329 329 330 330 330 330 330 330 330 330 330 330 330 329 329 329 329 330 331 330 328 327 326 326 326 325 324 324 324 324 324 325 326 328 329 330 329 329 329 328 326 323 321 322 321 319 318 318 317 316 315 313 312 311 310 307 305 305 304
337 337 337 336 336 335 334 333 333 333 332 332 331 331 331 330 330 329 328 328 328 327 327 327 327 326 326 326 326 326 327 327 328 327 327 329 331 330 328 328 328 328 328 329 330 330 329 329 328 327 326 325 325 323 323 324 324 324 325 327 329 330 328 329 330 329 328 325 321 320 319 317 315 315 314 314 313 312 312 310 308 306 304 303 303
335 334 335 334 333 332 331 331 330 330 330 329 329 328 328 328 327 326 326 325 325 324 323 322 323 323 322 323 323 323 323 324 324 325 324 326 328 328 327 327 328 327 328 327 328 329 329 328 327 328 328 326 324 322 322 324 323 323 324 326 328 329 328 329 330 330 329 327 323 320 319 317 314 313 312 311 311 311 310 308 306 305 304 303 301
332 332 332 331 330 329 329 329 328 327 327 327 327 327 326 326 325 325 324 323 323 322 321 321 321 321 321 322 322 321 322 321 322 323 323 323 324 326 327 327 327 327 328 327 326 328 328 326 325 327 328 327 325 323 322 322 322 323 324 325 326 328 329 329 330 330 328 327 326 323 321 319 316 313 311 310 310 310 309 307 306 305 305 304 302
330 330 329 328 327 326 326 327 326 326 326 326 326 326 325 325 325 324 323 323 322 321 321 321 320 320 320 320 320 319 319 319 320 321 322 322 322 324 325 325 326 328 328 328 327 327 327 326 325 326 326 326 325 324 322 321 322 322 323 324 324 326 328 329 329 328 328 327 327 325 323 321 319 314 310 309 310 310 308 307 306 305 305 305 303
Wind_Speed
10 9 9 9 10 9 9 8 8 7 6 5 4 3 4 4 4 4 4 4 4 5 6 6 7 8 8 8 7 7 7 6 5 5 4 4 3 2 2 1 2 1 1 1 2 4 4 3 3 2 2 3 3 4 5 6 7 8 9 9 8 8 8 9 9 9 9 7 6 6 5 6 6 4 4 5 4 4 4 5 3 3 5 6 6
8 8 8 9 9 10 10 8 8 8 7 7 5 4 4 5 6 6 6 5 6 6 7 7 7 8 8 7 7 6 6 5 5 5 4 4 4 3 2 2 1 0 3 3 3 4 4 3 3 3 4 4 5 6 7 8 9 9 9 9 8 8 9 10 9 9 7 6 6 6 5 4 4 3 3 4 4 4 5 4 2 3 5 6 5
6 7 7 8 10 10 10 9 9 9 9 9 7 7 6 6 7 7 6 6 7 7 7 8 8 8 8 7 7 6 6 5 5 5 4 4 4 3 4 4 3 2 2 3 4 4 5 4 3 4 5 6 6 8 8 9 9 9 9 9 9 9 9 9 9 8 7 6 6 6 5 4 4 5 4 4 4 3 4 4 5 6 7 6 5
6 7 7 8 10 10 10 10 9 10 10 10 10 10 8 8 7 8 8 8 8 7 7 8 8 8 8 8 7 7 6 6 6 5 4 4 4 3 4 4 3 3 1 2 3 4 5 5 4 4 5 6 7 8 9 9 9 9 8 9 8 7 7 7 8 7 8 8 7 5 4 4 4 5 3 3 3 4 4 3 4 5 5 5 4
7 7 7 7 8 9 9 9 9 9 9 10 10 10 10 9 9 9 8 9 8 7 7 8 7 7 7 7 6 6 6 6 6 4 3 4 4 4 3 2 3 3 3 4 5 5 5 5 5 6 6 6 7 9 8 8 9 9 8 7 5 5 6 5 6 6 9 8 7 5 2 3 2 3 3 2 3 3 4 3 4 5 5 4 2
7 7 7 6 6 8 8 8 9 8 9 9 9 9 10 10 10 9 8 8 7 7 8 7 6 7 7 6 6 6 5 6 6 5 3 3 3 2 2 2 3 5 6 7 7 6 6 6 7 8 7 7 8 8 7 7 8 8 7 5 3 4 5 5 3 4 7 6 5 3 1 3 2 4 4 2 2 2 3 2 2 3 3 2 0
7 6 7 7 7 8 9 9 9 9 9 9 9 9 9 10 10 9 8 8 9 8 7 7 7 8 9 8 7 7 7 7 7 6 5 4 2 1 2 4 4 5 7 8 8 7 8 7 7 8 8 7 8 7 6 6 5 5 5 4 3 4 4 4 2 2 4 2 3 2 0 3 3 3 3 3 2 1 2 1 2 1 1 1 1
7 7 7 8 9 10 10 10 10 9 9 10 10 10 10 10 9 9 9 9 9 8 7 8 9 10 9 8 9 9 8 8 7 6 6 5 3 2 3 5 5 6 7 8 8 8 9 8 8 8 7 7 6 5 5 5 4 4 4 3 2 3 3 3 3 4 1 1 2 1 1 2 2 2 2 3 2 1 2 2 3 1 0 0 0
7 7 7 8 10 11 11 11 11 10 10 11 10 10 11 10 10 9 9 9 9 8 8 9 10 10 9 9 11 11 9 8 7 8 8 5 3 3 4 5 6 7 8 8 8 8 8 8 8 7 6 5 5 5 4 4 3 3 2 2 2 3 3 3 4 5 4 3 2 1 1 1 1 1 2 2 2 2 3 3 2 1 1 1 1
8 8 8 10 11 12 12 12 12 11 11 12 11 11 12 11 11 11 9 8 8 9 9 10 11 10 10 10 11 12 11 9 8 8 8 6 4 5 6 8 8 7 7 8 8 8 7 8 7 6 6 5 4 4 4 3 3 2 2 2 3 4 4 4 4 6 6 5 3 2 1 1 2 2 1 1 2 2 3 4 2 1 2 1 1
8 9 9 10 13 13 12 12 12 12 12 12 12 12 12 12 12 11 10 10 10 10 10 10 11 10 10 10 11 11 11 10 9 8 7 6 6 7 8 10 9 7 8 8 8 7 6 6 6 5 6 5 4 3 4 4 3 2 2 2 3 4 5 5 5 6 6 4 3 2 2 2 2 1 3 1 3 1 2 3 2 3 5 2 2
8 9 9 11 13 13 12 12 12 12 12 12 13 13 13 13 12 11 10 10 11 11 11 10 10 10 9 10 9 9 10 10 9 9 7 6 6 7 7 8 8 7 7 8 8 7 6 6 6 6 6 5 5 4 4 4 3 2 2 2 3 4 5 5 5 6 5 4 4 3 2 2 1 2 2 2 3 1 1 1 1 2 2 1 3
8 9 9 10 11 12 11 12 13 13 13 13 14 14 14 13 13 12 10 11 11 11 11 11 11 10 10 9 9 8 9 9 9 9 8 7 5 6 6 6 6 6 7 7 7 6 6 6 6 6 6 5 5 5 4 3 2 2 2 3 3 4 5 5 6 7 5 4 4 3 2 1 2 3 1 3 3 2 2 2 1 2 1 2 3
8 8 9 9 10 12 12 12 13 13 13 14 15 15 14 13 13 13 12 13 12 12 12 12 12 10 10 9 9 8 8 8 8 8 8 8 6 5 5 5 5 6 6 6 6 5 5 6 5 5 5 5 4 4 2 1 1 2 2 3 4 5 5 7 7 6 6 5 4 3 2 1 2 3 1 4 4 3 2 2 2 2 3 3 4
8 8 9 9 9 10 12 13 13 13 13 14 15 15 14 13 13 13 13 14 13 13 11 11 11 10 10 9 8 7 7 7 7 7 7 7 6 5 4 4 4 4 5 5 5 5 4 4 4 3 3 3 3 2 0 1 1 2 2 3 3 5 5 7 8 6 6 6 4 4 2 2 4 3 1 4 4 3 3 3 3 3 4 4 5
8 8 8 9 8 9 11 12 13 13 13 15 14 14 14 13 13 12 13 13 12 12 11 11 10 10 10 9 7 7 7 6 5 6 5 6 6 5 4 3 3 3 4 5 5 4 4 3 2 2 2 1 1 1 2 2 2 3 3 3 3 4 5 6 8 8 6 6 5 4 1 3 6 3 3 4 4 4 4 3 4 5 5 5 6
7 8 8 9 9 9 10 11 12 12 13 15 14 14 14 13 12 12 12 13 12 11 11 11 10 10 10 9 7 7 6 5 4 4 3 4 4 4 3 2 2 2 3 4 4 5 5 4 3 3 3 2 3 3 3 4 3 4 4 4 4 5 6 6 8 8 6 6 5 3 2 4 6 3 3 4 4 5 4 5 6 6 5 5 5
7 8 8 9 9 9 10 10 11 11 11 12 13 13 14 13 11 11 11 11 11 11 10 11 10 9 8 7 7 6 5 4 3 2 2 2 2 2 2 2 2 2 3 3 4 5 5 5 5 5 4 4 5 5 5 5 5 5 5 6 6 6 6 6 8 8 6 6 4 4 4 6 6 4 5 5 5 6 6 6 7 8 7 6 5
7 7 8 9 9 9 9 9 10 10 10 9 9 10 12 11 10 10 10 10 10 10 10 10 9 8 7 6 6 5 4 3 3 2 2 1 1 1 1 0 1 1 2 3 4 5 6 7 7 6 6 6 7 7 7 7 7 7 7 7 6 6 7 7 8 7 6 5 5 4 4 6 6 5 5 7 7 7 7 8 9 9 7 5 5
7 7 7 8 8 9 9 9 9 9 8 7 7 8 10 10 9 10 10 9 9 9 9 9 8 7 7 6 6 5 3 2 2 1 2 1 1 2 3 2 2 3 3 3 4 5 6 7 8 8 8 8 8 8 8 9 9 9 8 8 7 7 8 8 8 7 6 5 6 4 3 5 5 6 7 9 8 7 7 9 9 7 6 5 5
6 7 7 6 7 9 9 8 8 8 7 6 6 6 9 9 8 9 9 9 8 8 8 7 7 6 6 6 6 5 3 1 0 1 1 0 1 2 3 2 3 3 4 4 5 6 7 8 8 8 8 8 7 7 8 9 9 9 9 8 6 7 8 8 8 8 7 7 6 2 1 2 6 7 9 9 9 8 7 9 8 6 6 5 6
6 7 7 6 7 8 9 8 7 8 7 6 6 6 7 8 7 8 8 8 8 8 7 6 6 6 5 5 5 6 4 2 1 1 1 2 2 2 1 1 2 3 5 5 6 7 8 9 8 8 8 7 6 6 8 8 8 9 8 7 6 7 8 7 8 8 8 8 4 2 2 4 8 9 9 9 9 11 10 10 9 8 8 7 6
7 7 6 6 7 7 8 8 8 7 6 6 6 6 6 6 6 6 6 7 8 8 7 7 7 6 6 5 5 6 5 4 4 4 2 1 1 2 2 2 3 4 5 6 6 7 8 8 8 8 7 7 6 7 8 8 7 7 7 7 6 7 7 7 8 8 8 7 4 4 2 6 8 9 8 8 9 11 12 13 12 10 10 10 8
7 7 6 6 6 7 7 8 8 7 7 7 7 7 6 6 5 5 5 7 7 7 8 9 8 8 7 6 5 5 5 5 6 6 4 2 2 3 3 3 4 5 6 6 6 7 7 8 8 7 7 7 7 7 6 6 6 6 5 5 6 6 7 7 8 8 8 5 4 4 2 6 7 7 8 8 8 10 11 11 11 10 10 11 12
6 6 6 6 6 7 7 7 8 7 7 7 7 7 6 6 6 5 5 6 6 6 7 9 9 9 8 7 5 4 4 5 6 6 5 4 4 4 4 4 4 5 6 5 5 6 7 7 7 7 6 7 7 5 5 5 5 5 5 5 5 6 6 7 7 6 7 4 5 3 3 5 4 5 6 7 7 8 8 7 7 8 9 10 12
7 7 6 7 7 7 7 7 7 7 7 7 6 7 7 7 6 6 6 6 7 7 8 8 9 10 8 7 6 4 4 5 6 6 6 6 6 5 5 5 5 4 5 5 5 5 6 6 6 6 6 6 5 5 5 5 5 5 4 5 5 5 6 6 6 5 6 3 5 2 3 3 3 4 3 5 5 5 5 6 6 7 8 9 10
7 7 7 7 7 7 7 6 6 6 7 7 6 7 7 7 7 7 7 7 7 8 8 8 9 9 9 9 7 6 6 6 7 7 8 8 7 7 6 6 6 5 6 6 6 6 6 6 6 6 5 5 5 5 5 4 5 4 4 4 4 5 5 5 5 5 5 3 7 3 2 3 2 2 2 3 3 2 4 5 5 5 6 9 9
8 8 8 8 7 7 6 6 6 6 6 7 7 7 7 7 8 8 8 8 8 8 9 8 8 9 10 9 8 7 7 7 8 8 8 8 8 8 7 7 6 7 7 7 7 7 6 6 6 5 5 4 4 4 4 4 4 4 4 4 4 4 4 4 5 4 5 4 8 4 3 4 3 2 1 1 1 1 2 2 2 1 3 6 5
9 8 8 8 7 6 5 6 6 6 6 6 7 7 7 8 8 9 9 8 8 8 8 8 8 8 9 9 8 8 8 8 9 9 9 8 8 8 7 7 7 7 7 7 7 8 7 7 7 6 5 4 4 4 4 4 4 4 3 3 3 4 4 4 4 4 4 6 10 7 5 6 5 4 4 3 3 3 3 3 2 1 1 2 3
8 8 8 7 6 5 6 6 6 6 6 6 7 8 8 9 9 9 8 8 7 7 7 7 7 7 8 7 7 8 8 8 9 8 8 8 7 7 7 7 7 7 8 8 7 8 8 8 7 7 6 5 5 5 5 4 3 3 2 3 3 4 4 4 4 4 4 6 11 10 9 9 8 8 7 6 6 7 7 7 6 4 4 6 8
8 7 7 6 5 5 6 6 6 6 6 7 8 8 8 8 8 8 8 7 6 6 6 6 6 6 6 6 6 6 6 7 7 7 6 6 6 6 6 6 7 7 8 8 8 8 9 8 8 7 7 7 5 5 4 3 3 2 2 2 3 3 3 3 4 4 4 5 10 13 12 11 11 11 10 10 10 10 11 11 10 9 9 11 13
8 6 5 5 5 5 6 6 5 5 6 6 7 7 7 7 8 8 7 6 6 6 7 6 5 5 5 4 5 5 5 5 6 6 6 5 5 5 5 5 6 7 7 9 9 8 8 8 8 8 7 7 5 4 3 2 2 1 2 2 2 3 3 3 3 4 4 5 8 12 12 13 14 14 14 13 13 13 14 14 13 13 13 14 15
8 6 5 5 5 5 4 4 4 4 5 6 6 7 7 7 7 7 7 6 6 7 7 6 5 4 4 4 4 4 5 5 6 7 6 5 5 5 5 5 6 7 7 8 8 7 7 7 7 7 6 7 5 3 3 2 0 1 2 2 2 2 2 3 3 4 4 4 5 8 12 14 14 14 15 15 15 15 16 16 17 16 15 15 15
7 6 5 4 4 3 3 3 4 4 5 6 6 6 7 7 7 7 7 6 6 7 6 6 5 3 3 4 4 5 5 5 6 7 7 6 5 6 6 6 7 7 7 8 8 7 7 7 7 6 5 5 4 3 3 1 0 1 2 2 2 2 2 3 3 3 4 4 5 7 9 10 10 12 14 15 15 16 16 17 17 16 16 15 14
6 5 4 3 3 3 3 4 4 5 5 6 7 7 7 8 8 7 7 6 5 6 6 6 5 4 4 4 5 5 5 5 6 7 7 6 6 6 6 7 7 8 8 9 8 8 8 7 7 7 6 4 3 2 2 1 0 1 2 2 2 1 2 3 3 3 3 4 7 9 8 7 7 10 10 12 15 16 15 16 15 15 15 14 14
5 4 3 3 4 4 4 5 5 6 6 7 7 7 7 8 8 8 6 5 5 5 5 5 5 5 5 5 5 6 5 5 6 6 6 6 6 5 6 7 7 7 8 8 8 8 8 7 7 7 7 6 4 2 2 1 1 2 2 1 1 2 2 2 3 2 3 7 9 9 9 8 7 8 8 10 14 15 15 15 14 14 13 13 13
4 3 4 4 5 5 5 5 6 7 7 8 8 8 8 7 8 8 6 5 5 5 5 4 5 5 5 5 6 6 5 5 5 6 6 6 5 5 5 5 6 6 7 7 7 8 8 8 7 6 6 6 4 3 2 0 1 2 3 2 2 2 1 2 2 1 3 8 9 7 8 8 7 8 7 8 11 11 12 13 13 13 12 12 11
4 4 4 5 5 5 5 5 6 7 8 9 9 8 8 8 8 8 7 6 5 5 5 5 5 5 6 6 6 6 6 6 6 6 6 6 6 6 5 5 5 5 6 6 6 7 7 8 8 7 6 6 5 4 2 1 1 2 3 2 1 0 1 1 2 1 5 9 9 7 7 8 8 8 8 9 9 8 9 10 11 12 11 11 11
4 5 5 5 6 6 5 6 7 8 9 9 9 8 8 8 9 8 8 7 6 6 6 6 6 6 6 7 7 7 7 7 7 7 7 7 7 6 6 6 6 5 5 6 6 6 6 7 7 7 6 6 5 4 3 1 1 2 4 3 2 1 1 2 1 3 6 8 8 8 8 9 9 9 9 9 9 9 8 8 8 9 10 11 11
5 5 5 6 6 7 7 7 8 9 10 10 10 10 10 10 10 10 10 9 8 8 7 7 8 8 8 9 8 8 8 8 8 8 7 7 7 7 7 7 7 6 6 6 6 6 6 6 7 7 7 6 5 5 3 2 2 2 3 2 2 2 2 3 2 5 8 7 9 10 9 9 8 8 9 8 8 8 8 7 7 7 7 9 12
5 5 6 6 7 8 8 9 9 9 10 11 11 11 11 11 11 12 12 11 10 10 10 9 10 10 10 10 10 10 9 9 9 8 8 8 8 8 7 7 7 7 7 7 6 6 6 6 6 6 7 7 6 5 4 4 4 3 3 3 3 2 3 4 4 7 9 8 9 10 9 9 8 8 9 8 8 8 8 7 7 7 6 7 9
6 6 6 7 8 9 10 10 10 10 11 12 12 11 11 11 11 11 12 12 12 12 12 12 12 11 12 12 11 11 11 11 10 10 9 9 9 9 8 8 8 7 8 8 8 7 7 6 7 6 6 7 7 6 5 6 7 5 4 4 4 3 3 5 6 9 9 8 9 10 9 9 8 8 8 8 8 8 8 8 8 8 7 6 6
6 7 8 8 9 10 11 11 11 11 11 12 12 11 11 11 10 11 11 12 12 12 13 13 13 13 14 14 13 12 12 12 12 12 11 11 10 10 10 9 9 9 9 8 8 8 7 7 7 6 6 7 7 7 6 8 8 7 6 5 4 4 4 5 7 8 8 7 9 9 9 9 8 8 8 7 8 8 8 8 9 9 8 7 7
8 9 9 9 9 10 11 11 11 11 11 12 12 11 11 10 10 11 11 11 11 12 12 13 14 16 16 16 16 15 15 14 15 15 15 14 13 13 12 11 11 10 10 10 9 9 8 8 7 6 6 7 7 5 6 8 9 8 6 5 4 4 4 5 7 6 6 7 8 9 8 10 9 7 8 7 8 8 8 9 9 9 8 8 7
9 9 10 10 9 10 11 11 10 11 11 12 13 12 11 11 12 12 12 12 12 13 15 16 17 18 19 19 20 19 18 17 17 17 18 18 16 15 15 14 13 12 11 11 10 9 9 9 8 8 7 7 7 6 7 8 10 10 8 7 4 4 3 6 8 4 6 8 7 8 8 9 8 7 7 7 8 8 9 9 9 9 8 8 7
9 9 9 10 10 11 11 11 11 12 12 13 13 13 12 13 14 14 14 15 15 15 17 18 19 20 21 21 21 21 21 20 19 19 21 21 20 18 17 17 16 15 13 12 12 11 10 10 9 9 8 8 7 7 8 7 9 10 11 11 6 5 4 4 6 2 7 8 6 8 8 7 7 6 6 7 8 8 9 9 9 9 9 8 8
9 9 10 11 11 12 12 12 12 12 13 13 14 14 13 14 15 15 15 15 16 16 17 18 19 20 22 22 21 20 21 22 21 21 21 21 22 21 19 20 21 19 17 14 13 13 12 11 10 10 9 8 8 8 8 7 8 10 11 11 9 9 8 5 5 3 5 5 4 6 7 6 6 6 6 7 8 8 8 9 9 9 9 9 9
10 10 11 11 12 13 14 14 14 15 15 15 16 16 15 16 17 17 16 16 16 17 17 18 19 19 21 22 21 20 21 22 22 23 24 20 20 22 21 21 21 22 23 20 16 14 13 13 11 11 11 10 9 9 9 8 8 9 9 10 10 10 10 9 8 6 5 5 4 5 6 7 5 5 5 6 7 8 9 9 9 9 10 10 10
11 12 12 13 14 15 16 16 17 17 18 18 18 18 18 17 17 17 17 16 16 16 16 17 18 19 20 21 21 21 22 23 22 24 26 23 20 23 24 22 20 21 24 25 22 16 15 16 15 12 12 11 11 10 10 9 8 9 9 10 10 10 9 9 9 9 6 4 5 6 7 7 6 5 4 5 7 8 9 9 9 9 9 10 10
13 14 14 14 15 16 18 18 18 18 18 19 19 18 18 17 17 17 17 16 16 16 17 18 18 19 20 21 21 21 22 23 23 23 23 24 23 22 21 22 22 20 21 23 24 19 18 21 20 16 13 12 12 11 10 10 9 9 10 10 10 9 8 7 8 8 6 4 5 7 10 10 8 7 5 5 6 7 8 8 8 8 8 9 9
14 15 15 15 16 17 18 19 18 18 18 19 19 18 18 17 17 17 17 17 17 16 17 18 19 19 20 21 21 21 22 22 23 23 22 23 24 22 22 22 21 20 20 20 21 21 20 20 18 16 14 14 14 12 11 11 10 10 11 11 11 9 7 7 7 8 7 6 5 6 10 12 10 9 7 5 6 6 7 7 8 8 8 9 9
Wind_Direction
27 23 20 12 29 33 42 41 36 40 36 35 31 32 28 48 66 72 69 61 65 66 65 57 60 56 51 50 54 56 52 49 42 33 31 39 37 33 50 105 158 162 108 20 63 96 93 58 52 80 92 110 119 125 125 125 123 116 109 100 95 93 88 83 81 84 83 82 89 96 76 74 93 82 88 86 62 46 57 107 114 95 94 84 80
19 23 24 15 28 31 37 38 35 34 34 36 34 40 33 47 62 67 67 65 68 69 64 56 57 56 50 46 45 48 47 41 37 31 27 32 19 8 24 38 345 53 61 60 92 106 90 64 71 101 112 115 119 118 116 120 118 113 109 102 97 92 91 89 86 88 90 100 111 107 102 107 95 53 71 78 61 49 61 105 90 59 89 78 74
26 29 28 22 32 34 35 34 34 31 35 41 40 48 46 51 61 65 66 67 70 72 67 61 56 51 45 41 41 39 42 40 39 40 39 40 22 9 6 7 0 8 43 95 122 118 99 88 97 108 110 107 113 114 110 111 110 110 108 101 94 91 94 91 86 87 88 92 103 103 101 108 71 49 79 88 67 60 69 98 82 68 81 83 87
38 34 30 27 31 32 37 36 35 32 33 38 41 48 51 55 61 64 70 74 76 80 73 67 58 51 46 44 46 38 38 38 36 35 32 27 23 44 30 3 358 10 22 114 101 94 98 98 104 97 95 101 107 108 106 108 109 113 109 102 94 85 81 88 93 83 82 84 96 108 87 86 71 48 76 93 69 75 79 81 76 64 73 90 96
38 38 34 35 35 32 40 43 41 37 34 35 42 50 52 55 63 65 69 76 77 79 71 65 59 54 51 50 51 43 44 42 37 34 30 20 26 57 63 44 23 37 53 56 57 72 83 76 82 75 78 95 101 103 108 114 115 118 115 107 86 64 57 76 100 77 80 81 81 95 71 76 87 48 52 91 80 78 82 68 55 50 70 86 86
37 38 37 36 39 37 43 48 47 43 41 37 43 51 52 53 59 64 64 68 66 65 64 60 60 55 48 43 36 29 37 43 38 35 30 17 41 59 51 65 46 59 68 63 57 59 64 58 67 74 80 88 92 96 106 114 116 122 121 109 67 50 40 47 80 65 76 70 51 77 84 54 82 69 45 114 104 73 89 71 61 60 85 79 7
42 40 38 33 33 38 42 45 47 45 45 43 44 49 53 52 53 58 56 58 56 57 61 60 62 58 49 39 30 24 30 40 35 34 37 18 33 42 42 69 58 73 81 82 77 65 68 69 71 75 75 73 79 85 95 103 107 114 112 102 62 46 26 23 19 354 67 50 351 38 53 38 75 69 33 116 112 100 126 118 146 133 111 20 309
43 41 40 39 35 36 41 41 44 45 46 47 47 49 51 51 52 56 55 55 55 57 63 63 61 57 51 45 41 37 35 39 38 40 47 38 46 55 67 79 76 96 96 90 89 79 74 71 67 68 67 64 72 81 88 90 90 88 84 85 47 32 6 352 326 306 341 302 295 343 339 25 69 59 23 111 114 179 175 202 198 248 172 149 2
40 39 41 45 39 37 43 41 43 45 46 49 48 47 47 49 53 56 59 61 61 59 63 67 65 58 49 45 43 43 40 36 36 41 50 49 68 90 97 94 95 109 102 92 90 83 77 73 69 69 71 66 70 80 86 87 89 80 58 49 12 10 356 334 312 294 284 288 273 297 327 353 16 73 32 95 140 217 200 215 216 47 113 143 112
36 39 42 43 41 40 44 43 44 48 48 51 49 48 48 50 53 51 53 62 68 65 65 72 71 62 49 43 41 43 41 32 33 43 51 51 68 92 100 103 106 110 99 93 90 82 80 80 77 76 75 71 76 82 87 88 86 74 36 14 355 355 349 332 319 299 285 291 273 271 284 304 35 80 334 46 139 223 217 227 238 202 265 278 156
38 39 41 41 43 42 42 44 46 49 51 53 51 50 50 50 54 52 52 59 70 71 68 72 71 63 54 48 43 43 41 36 39 50 58 59 71 87 104 114 116 111 100 97 93 85 84 84 83 80 77 79 84 83 82 80 76 69 36 12 349 346 336 325 318 291 282 299 296 287 279 285 56 118 298 68 144 224 215 229 279 291 295 271 181
42 40 40 42 47 46 44 48 49 51 53 54 52 51 52 51 56 58 59 62 69 73 70 71 69 65 61 58 50 43 43 46 47 51 61 68 84 97 111 120 116 106 99 100 94 91 93 91 91 87 86 88 89 89 85 84 78 67 33 6 339 333 322 322 314 288 288 319 322 320 286 280 190 230 302 94 157 216 208 218 338 315 319 175 183
44 43 43 45 49 50 49 52 54 54 54 55 55 57 58 55 58 62 64 63 67 69 70 68 64 64 64 62 56 46 41 47 51 50 58 66 84 100 108 115 114 110 106 106 100 101 103 96 96 93 94 95 94 90 83 83 74 51 16 348 332 328 319 320 310 297 312 326 328 329 278 267 201 245 313 118 167 184 192 220 250 247 228 202 210
47 47 51 52 49 50 52 55 57 58 57 58 59 60 60 56 57 62 62 60 60 61 62 61 57 56 57 57 53 49 43 40 47 51 57 65 74 91 106 117 116 116 118 116 110 113 108 100 101 98 99 100 97 88 74 59 30 15 349 338 332 325 319 313 301 298 313 314 320 313 276 207 201 263 318 145 176 183 184 219 238 222 212 215 220
55 53 57 57 52 51 52 57 61 60 59 60 60 59 58 57 58 61 61 59 57 57 57 58 56 51 52 55 50 44 45 39 39 44 53 63 68 77 98 113 113 118 129 131 128 127 120 114 110 109 111 107 104 97 77 311 322 328 325 328 328 322 322 311 298 300 305 301 305 300 297 202 229 257 173 157 173 197 198 212 214 206 214 218 230
61 59 58 56 54 55 55 59 62 61 61 62 60 58 58 59 61 63 63 62 61 61 59 60 59 55 56 58 54 44 41 37 33 33 41 57 63 70 82 100 116 135 147 150 150 151 148 142 133 139 155 148 160 227 260 282 298 303 310 311 314 313 317 315 301 298 296 295 299 297 297 226 242 229 166 157 167 206 205 210 211 207 217 224 246
62 64 60 55 53 57 57 57 56 56 60 63 61 57 57 59 65 68 65 64 62 61 61 62 62 61 62 61 61 53 44 41 38 28 29 49 60 69 83 101 132 162 166 171 177 176 174 182 186 201 223 227 244 261 271 282 290 290 290 286 294 300 306 315 299 288 288 294 292 286 263 220 231 199 162 164 173 208 211 222 217 205 221 234 260
60 59 59 57 54 56 57 56 56 58 59 61 60 54 55 59 66 70 67 65 63 62 63 66 67 66 66 67 71 70 65 57 51 52 42 43 55 60 83 111 147 172 172 187 198 195 195 204 211 222 237 244 255 263 273 276 275 273 269 269 275 283 293 304 289 279 283 284 275 271 239 215 226 187 157 172 184 208 211 222 218 214 229 231 249
62 55 54 55 53 55 57 58 59 62 63 63 61 55 58 62 68 77 77 75 73 70 67 66 65 67 71 72 79 83 83 81 81 82 79 85 87 339 303 149 171 195 181 194 206 210 213 219 224 234 243 250 259 266 270 269 268 264 262 264 266 276 289 291 280 276 282 268 266 266 215 225 228 167 164 182 189 209 210 214 221 231 235 223 240
67 56 50 53 53 56 58 59 58 61 64 66 65 60 62 62 66 79 85 84 83 79 73 68 65 65 69 68 68 71 65 77 95 82 93 116 168 226 244 241 238 237 217 210 217 219 224 229 235 241 247 252 260 267 268 266 265 265 266 266 269 284 286 280 277 281 283 263 265 257 213 247 205 161 194 195 187 203 213 220 230 243 231 217 236
73 60 50 54 55 55 56 56 56 59 65 66 66 61 61 63 65 76 81 81 81 77 71 68 62 54 54 54 49 51 42 31 130 200 184 191 253 222 221 231 242 245 241 237 234 233 235 237 239 244 248 251 258 263 269 272 268 267 268 268 278 286 275 273 283 287 284 273 267 241 290 244 168 186 216 200 188 193 210 223 227 232 221 217 227
74 66 54 55 55 50 47 49 50 51 56 59 60 55 55 63 71 78 80 77 73 63 57 54 44 30 24 25 30 41 43 35 91 153 203 224 258 267 269 274 266 262 259 250 245 243 243 243 243 247 250 254 258 253 259 269 273 274 272 272 277 271 266 272 283 285 283 282 294 14 18 144 176 217 216 201 199 195 203 211 212 215 216 223 230
67 69 62 56 50 45 41 43 45 44 48 54 59 58 56 63 73 77 73 66 62 51 45 43 35 22 11 7 18 33 38 41 58 71 81 191 269 294 305 310 308 294 276 264 261 258 254 254 254 255 256 260 259 247 245 251 261 273 273 269 265 261 268 277 280 284 285 291 336 18 61 153 195 219 207 211 213 209 213 213 220 219 216 225 230
64 71 68 56 45 42 39 38 42 45 52 60 62 62 61 67 72 68 57 53 53 47 41 37 30 24 16 12 18 27 30 32 38 39 33 9 333 329 329 329 325 315 304 288 279 281 280 275 274 271 263 261 258 252 253 255 257 266 266 261 263 267 272 279 282 287 289 302 28 47 142 175 202 212 211 225 225 227 226 224 233 230 226 236 239
68 74 69 56 42 40 40 39 46 51 58 62 64 62 57 57 60 56 50 46 44 45 38 28 25 22 16 17 24 33 34 29 29 28 21 8 351 344 337 332 322 313 313 301 286 292 293 283 279 276 268 267 266 268 277 275 269 268 270 268 271 275 278 283 286 291 296 323 50 69 181 181 193 206 221 236 237 237 237 237 242 239 241 248 247
69 72 66 55 44 41 43 47 54 56 57 60 60 55 52 51 50 52 50 43 36 36 32 24 22 21 18 26 36 39 35 29 26 22 14 7 0 352 342 335 327 322 326 318 306 299 295 288 281 277 277 280 278 281 281 276 273 272 277 282 285 285 289 292 292 303 306 354 68 113 189 165 172 189 225 250 245 240 248 249 248 253 257 260 258
70 70 67 60 49 43 46 56 59 57 59 61 57 51 52 52 47 44 41 35 29 29 28 23 23 23 26 36 39 31 25 23 17 13 10 6 1 352 345 339 334 334 335 327 317 306 298 294 286 280 282 281 276 274 275 273 274 281 289 296 305 300 304 309 309 318 308 35 77 100 138 119 137 152 213 229 232 251 265 254 251 265 269 272 270
72 68 67 63 56 49 50 58 58 56 57 56 55 52 50 47 42 39 35 29 26 28 28 26 28 30 32 35 34 26 19 17 14 11 9 6 2 355 348 346 342 341 340 333 325 315 304 299 296 287 278 277 275 271 272 271 271 280 292 308 318 313 321 325 326 333 315 41 84 100 95 88 100 109 152 148 136 296 305 276 249 264 273 282 285
75 71 73 70 60 54 56 58 55 54 53 53 52 52 48 43 39 37 33 28 28 30 28 29 33 34 35 33 30 25 18 15 11 6 3 1 1 358 355 353 349 348 342 338 333 323 312 306 306 301 289 280 273 270 271 273 277 283 294 314 326 330 340 340 338 341 340 54 86 95 83 80 85 86 77 71 72 70 52 47 58 46 335 345 21
79 80 80 76 63 60 61 56 56 58 58 56 51 46 43 39 36 34 33 31 31 31 29 33 36 36 36 32 30 23 16 12 6 359 356 355 357 359 359 356 353 352 345 338 333 327 318 310 308 308 305 296 287 281 276 276 283 293 317 332 342 347 348 350 350 352 357 46 83 92 84 81 82 82 79 73 72 76 70 64 65 67 67 63 69
86 87 84 76 68 64 61 57 60 64 60 53 48 45 43 39 35 33 33 31 31 31 32 38 38 39 37 33 30 23 18 11 2 355 351 351 355 357 360 359 357 354 350 344 338 331 321 313 312 310 305 301 299 291 279 281 291 308 356 357 358 356 357 3 4 19 24 45 85 94 87 81 82 83 82 76 71 73 73 70 73 84 87 80 83
91 88 84 75 70 64 60 61 63 63 55 49 48 46 44 40 35 33 30 27 28 30 34 39 41 44 42 35 29 20 16 7 1 356 348 351 353 353 357 359 357 353 351 346 341 336 325 320 318 311 304 299 297 299 287 282 298 337 26 27 19 9 11 24 29 40 44 56 80 90 92 87 84 82 80 77 72 69 70 72 76 84 89 87 87
92 90 84 73 66 57 56 61 58 54 46 42 43 43 39 35 33 30 25 23 27 29 32 36 38 45 42 30 18 9 6 359 358 355 351 355 354 352 353 354 355 349 347 344 340 337 330 329 325 315 309 302 297 296 280 265 299 34 58 55 47 44 36 40 48 52 56 65 78 93 97 93 87 83 79 76 74 71 71 74 75 79 83 82 84
89 88 83 71 59 48 52 51 43 39 32 31 34 33 30 25 26 26 23 22 25 27 27 31 30 33 31 17 5 357 356 356 355 354 354 356 357 356 353 355 353 345 344 344 339 337 333 333 329 321 311 303 302 299 285 279 294 87 83 81 83 79 55 44 51 63 70 82 88 91 93 90 90 88 81 76 77 77 75 75 73 74 75 74 77
81 84 78 63 50 38 43 39 32 29 24 24 21 20 20 18 20 23 23 22 23 24 24 26 26 26 21 13 5 355 350 351 350 349 351 353 357 359 356 355 350 344 347 345 339 337 336 333 331 327 319 306 302 310 315 329 2 106 92 95 108 99 61 53 65 75 82 95 94 92 93 90 87 86 84 81 81 82 80 76 73 72 71 70 69
69 69 55 41 40 36 35 32 31 28 21 16 10 8 11 14 19 21 20 19 19 20 20 21 21 20 17 12 6 354 346 342 341 343 343 347 352 354 354 351 345 344 346 344 342 341 335 329 328 326 322 317 318 325 343 357 63 92 85 85 81 72 66 67 81 88 96 101 98 97 97 92 88 87 87 85 84 88 86 77 75 77 74 71 68
56 46 38 38 40 40 34 29 24 18 11 7 3 2 6 9 14 16 15 10 8 9 7 6 8 9 8 6 358 349 345 334 331 333 331 337 341 341 343 339 337 339 338 339 344 346 339 327 320 319 315 312 316 322 335 18 111 100 92 75 52 46 55 79 99 112 109 107 105 105 99 96 93 89 87 86 85 88 83 69 68 78 79 75 71
54 46 42 39 39 38 31 25 18 10 6 1 359 359 1 2 2 5 7 1 356 354 351 348 349 351 351 352 345 341 339 332 328 326 323 327 329 328 326 323 321 324 327 330 337 345 344 332 316 312 309 303 306 308 302 285 210 140 125 112 94 85 55 116 149 122 103 110 112 109 105 103 99 95 91 89 88 85 79 65 61 70 68 60 59
48 45 42 36 32 30 25 22 15 8 4 359 359 359 357 0 358 358 2 359 354 349 344 339 336 335 335 334 329 327 328 326 324 320 318 320 320 319 315 312 307 305 312 319 325 334 340 334 319 309 302 296 296 294 292 274 216 160 139 131 145 171 122 132 159 107 110 117 116 112 111 107 101 98 95 91 89 80 74 69 66 75 62 38 36
45 41 37 31 26 22 18 16 10 5 2 1 2 1 359 1 359 358 359 357 355 350 344 337 332 330 329 325 318 313 312 312 313 312 311 310 310 311 309 306 302 298 296 302 311 319 323 326 320 309 298 289 280 273 275 253 203 158 141 153 180 180 140 140 134 118 127 130 121 119 117 112 106 99 96 94 88 75 67 65 63 77 73 42 34
45 37 32 29 24 21 18 12 8 6 5 4 2 1 1 359 357 357 356 352 350 348 342 337 333 328 325 321 314 308 304 301 300 300 301 301 301 303 303 301 300 298 292 289 292 299 303 309 314 307 292 285 278 266 254 244 230 196 170 179 193 187 141 137 141 135 136 134 128 128 125 120 113 103 98 89 83 77 72 69 63 65 69 59 47
43 35 29 26 21 20 18 13 10 9 9 7 2 360 359 355 351 349 347 344 344 341 336 335 332 326 323 320 316 311 306 300 295 292 291 291 294 298 299 296 296 295 289 284 279 279 282 293 305 306 295 285 276 267 250 245 247 239 223 205 189 173 150 143 146 143 139 138 138 134 129 124 116 109 104 92 85 83 78 73 69 65 59 58 55
43 35 29 24 22 20 17 14 13 12 10 7 2 356 351 346 341 337 335 333 334 332 330 331 328 324 323 321 319 316 312 305 297 293 289 284 283 286 288 288 288 289 287 284 276 271 270 274 283 293 297 286 269 256 245 249 259 260 248 233 207 181 179 162 150 145 141 141 142 138 131 123 116 113 106 96 92 87 83 79 73 69 61 55 51
43 37 30 25 22 18 15 13 14 13 8 3 358 350 344 342 338 332 330 326 328 330 329 333 331 328 328 326 327 322 318 316 308 299 291 283 279 279 281 282 282 283 282 282 279 272 267 263 265 273 283 284 277 262 252 252 259 262 256 253 233 223 226 166 147 148 144 146 146 144 136 124 120 117 110 103 100 95 88 83 76 69 62 54 48
42 35 29 23 19 16 15 13 13 11 8 3 358 354 351 352 349 345 346 343 345 346 341 341 342 340 338 336 335 330 325 322 315 309 302 293 284 278 278 278 275 276 276 277 279 276 269 264 257 258 263 274 283 279 268 255 255 260 259 265 253 249 258 149 149 148 120 130 139 138 135 129 128 123 117 112 108 103 94 86 78 69 61 54 49
38 32 28 25 22 20 18 17 18 16 13 11 8 8 8 7 5 3 3 359 358 359 353 349 349 348 348 346 344 341 340 337 329 323 316 310 304 295 287 286 280 274 272 273 278 276 271 266 256 252 253 258 267 275 274 262 258 259 254 261 260 253 269 151 163 159 101 106 117 129 132 127 128 129 123 117 112 106 96 88 80 70 62 57 53
38 35 32 31 29 28 28 28 30 27 23 22 20 22 23 22 20 18 16 11 7 6 3 0 358 356 357 356 353 351 351 350 345 336 329 322 319 314 304 299 294 285 278 272 271 273 272 268 258 252 252 253 257 266 274 271 263 257 248 253 255 246 250 237 219 194 131 117 111 127 130 122 122 126 124 118 112 105 97 91 82 74 66 61 59
41 40 38 40 41 42 42 43 43 40 35 35 35 36 36 33 32 30 28 25 20 15 13 13 11 9 8 6 5 3 0 359 354 349 348 340 329 326 322 314 306 296 292 284 273 268 269 268 260 250 249 248 251 261 271 272 266 262 252 247 251 249 242 239 242 229 186 158 139 138 133 124 114 107 112 114 111 106 98 91 83 79 73 68 63
51 52 52 55 55 53 53 53 51 48 45 45 44 44 43 41 39 36 34 30 27 23 19 18 16 14 13 10 8 6 4 2 359 357 358 355 343 334 332 330 321 307 298 291 283 274 265 267 266 255 248 246 247 254 260 264 265 265 262 251 247 250 244 233 236 241 231 183 160 164 150 138 126 111 110 112 113 107 98 93 88 86 82 76 70
60 61 60 61 60 59 57 56 54 50 48 47 47 46 44 43 41 37 35 30 27 24 20 19 15 12 12 10 7 5 2 0 358 357 357 355 351 343 336 332 326 314 301 291 285 279 268 268 267 258 252 250 248 250 251 256 263 263 263 259 250 245 242 231 224 228 236 229 194 169 162 164 152 135 130 121 119 112 104 101 95 92 90 84 78
62 62 61 61 61 60 59 57 54 50 48 46 46 45 43 41 39 36 33 28 24 21 18 16 12 11 10 7 5 3 2 359 355 354 353 351 349 345 340 335 327 317 307 296 287 279 273 272 270 263 260 259 253 249 249 251 256 260 259 259 257 248 238 235 226 215 218 222 206 165 166 174 158 140 144 137 131 126 114 109 104 100 97 92 86